Location: Oberwangen
(47.4286°N, 8.9679°E)
Time: 19:14:46
(UTC+00:00)

Meteor 2-20 Rocket - Visible Passes

Search period start: 21 October 2021 00:00
Search period end: 31 October 2021 00:00
Orbit: 940 x 960 km, 82.5° (Epoch: 21 October)

Date Brightness Start Highest point End Pass type
(mag) Time Alt. Az. Time Alt. Az. Time Alt. Az.
21 Oct 7.5 03:59:57 10° ESE 04:03:33 16° E 04:07:09 10° NE visible
21 Oct 7.5 18:17:16 10° NW 18:20:31 15° WNW 18:23:45 10° WSW visible
22 Oct 6.8 04:16:06 10° SE 04:20:56 25° E 04:25:45 10° NNE visible
22 Oct 5.2 16:48:16 10° NNW 16:54:15 59° W 17:00:11 10° S visible
23 Oct 6.1 04:32:52 10° SSE 04:38:25 38° E 04:43:59 10° NNE visible
23 Oct 6.1 17:06:16 10° NNW 17:11:50 39° W 17:17:22 10° SSW visible
24 Oct 5.2 04:50:03 10° S 04:56:01 58° E 05:01:59 10° NNE visible
24 Oct 6.9 17:24:28 10° NNW 17:29:19 26° W 17:34:08 10° SW visible
25 Oct 7.4 03:26:34 10° ESE 03:29:45 15° ENE 03:32:55 10° NE visible
25 Oct 4.5 05:07:34 10° S 05:13:41 87° E 05:19:49 10° N visible
25 Oct 7.4 17:43:05 10° NW 17:46:42 17° W 17:50:20 10° WSW visible
26 Oct 6.8 03:42:31 10° SE 03:47:07 23° E 03:51:43 10° NE visible
26 Oct 4.5 05:25:26 10° SSW 05:31:28 63° WNW 05:37:32 10° N visible
26 Oct 7.9 18:03:38 10° WNW 18:04:00 10° WNW 18:04:21 10° WNW visible
27 Oct 6.1 03:59:09 10° SSE 04:04:35 35° E 04:10:00 10° NNE visible
28 Oct 5.3 04:16:15 10° SSE 04:22:09 53° E 04:28:03 10° NNE visible
28 Oct 6.8 16:50:27 10° NNW 16:55:29 28° W 17:00:30 10° SW visible
29 Oct 7.4 02:53:16 10° ESE 02:55:57 13° ENE 02:58:38 10° NE visible
29 Oct 4.6 04:33:42 10° S 04:39:48 80° E 04:45:55 10° NNE visible
29 Oct 7.2 17:08:56 10° NW 17:12:54 18° W 17:16:51 10° WSW visible
30 Oct 6.8 03:08:57 10° SE 03:13:18 21° E 03:17:38 10° NE visible
30 Oct 4.4 04:51:29 10° SSW 04:57:34 69° WNW 05:03:39 10° N visible
30 Oct 7.6 17:28:24 10° WNW 17:30:12 11° WNW 17:32:02 10° W visible
